Back to catalog

STARLINK-34209

AliveCommunicationsSSO
NORAD 64150·PAYLOAD·🇺🇸 United States

Launched May 27, 2025 from Vandenberg Space Force Base

Loading…

Next Passes (next 24 hours)

TLE

FreshSource: CelesTrak SupGP

Epoch: Sep 14, 2026, 20:57 UTC

1 64150C 25112E   26257.87340278 -.00058414  00000+0 -18138-2 0  2571
2 64150  97.2843 305.0031 0001150  87.9089 311.2585 15.33459885    18

Track STARLINK-34209 in real time with AllMySat

Download on the App Store